Location: ??????????
(54.8537°N, 38.8755°E)
Time: 01:16:32
(UTC+00:00)

Transit 2A Rocket - Pass Details

Date: 19 September 2024
Orbit: 583 x 908 km, 66.7° (Epoch: 15 October)

Event Time Altitude Azimuth Distance (km) Brightness Sun altitude
Rises 01:46:31 0° 307° (NW) 3,544 8.1 -11.8°
Reaches altitude 10° 01:49:23 10° 317° (NW) 2,589 7.5 -11.5°
Maximum altitude 01:54:46 32° 20° (NNE) 1,463 6.9 -10.7°
Drops below altitude 10° 01:59:53 10° 83° (E) 2,460 9.2 -10.0°
Sets 02:02:31 0° 93° (E) 3,344 9.9 -9.7°
